[[{"header":{"parameterUnit":"m.s-1","parameterCategory":1,"la1":30.2991,"la2":30.254,"lo1":-89.0895,"lo2":-89.0444,"dy":0.0017,"dx":0.0017,"nx":28,"ny":28,"refTime":"2025-07-27T03:00:00:Z","depth":0,"parameterNumber":2,"parameterNumberName":"U-component_of_WINDS"},"data":[0,0,0,0,0,0,0,0,0,0,0,0,0,0,0,0,0,0,0,0,0,0,0,0,0,0,0,0,0,0,0,0,0,0,0,0,0,0,0,0,0,0,0,0,0,0,0,0,0,0,0,0,0,0,0,0,0,0,3.508,3.508,0,3.5124,3.5124,3.5125,3.5012,3.5008,3.5005,3.5001,3.5049,3.5053,3.5058,0,0,0,0,0,0,0,0,0,0,0,0,0,3.49,3.4904,3.508,3.508,3.5081,3.5124,3.5124,3.5125,3.5012,3.5008,3.5004,3.5,3.5047,3.5053,3.5058,0,0,0,0,0,0,0,0,0,0,0,0,0,3.4965,3.4905,3.508,3.503,3.5026,3.5124,3.5124,3.5125,3.5013,3.5008,3.5002,3.4998,3.5046,3.5052,3.5059,3.5208,0,0,3.508,3.5083,0,0,0,0,0,0,0,0,3.4961,3.4971,3.5036,3.5033,3.5029,3.5057,3.5078,3.5153,3.5015,3.5018,3.5001,3.4995,3.5056,3.5062,3.5082,3.5211,3.5213,3.5081,3.5085,3.5088,3.509,0,0,0,0,0,0,0,3.4957,3.4969,3.5097,3.5038,3.5033,3.5006,3.5009,3.5092,3.5067,3.5017,3.5009,3.5016,3.5053,3.5075,3.5082,3.5213,3.5081,3.5087,3.5091,3.5094,3.5467,3.5472,0,0,0,0,0,0,3.4958,3.4966,3.5096,3.5098,3.4981,3.5013,3.5017,3.5053,3.5065,3.5062,3.502,3.501,3.5066,3.5074,3.5083,3.5259,3.5088,3.5094,3.5098,3.5461,3.5468,3.5474,0,0,0,0,0,0,3.4955,3.4971,3.5094,3.503,3.5043,3.5022,3.5064,3.5057,3.5079,3.5067,3.5063,3.5048,3.5062,3.5074,3.5178,3.5259,3.5097,3.5104,3.5454,3.5463,3.5471,3.5612,0,0,0,0,0,0,3.495,3.497,3.5026,3.5032,3.5047,3.5188,3.5069,3.5062,3.5091,3.5079,3.5092,3.5089,3.5059,3.5168,3.5185,3.5265,3.5109,3.5447,3.5458,3.5469,3.56,3.5624,3.5645,0,0,0,0,0,3.4944,3.5065,3.503,3.5046,3.5117,3.5193,3.5201,3.5164,3.5098,3.5155,3.5147,3.5089,3.5247,3.518,3.5198,3.5282,3.5442,3.5455,3.5468,3.5589,3.5619,3.5644,0,0,0,0,0,0,3.507,3.5064,3.5026,3.5151,3.5173,3.5173,3.5243,3.5196,3.5238,3.5224,3.5176,3.518,3.5294,3.5298,3.5223,3.5427,3.5333,3.5351,3.542,3.5448,3.547,3.5467,3.5115,0,0,0,0,0,3.5112,3.5173,3.5165,3.5277,3.529,3.5265,3.5297,3.5266,3.5287,3.5296,3.5295,3.5319,3.5374,3.5411,3.5461,3.5599,3.5601,3.5666,3.5689,3.5707,3.5723,3.5797,3.5825,3.5517,3.5517,3.5517,0,0,3.52,3.5205,3.5247,3.5303,3.5316,3.5381,3.5274,3.5347,3.5395,3.5307,3.5405,3.5406,3.5429,3.5551,3.5605,3.5558,3.5808,3.5724,3.5739,3.5744,3.5813,3.5842,3.5868,3.5526,3.5524,3.5523,0,0,3.5394,3.5404,3.5498,3.5513,3.5534,3.5517,3.554,3.5547,3.5544,3.5642,3.5577,3.5634,3.5729,3.5748,3.577,3.5972,3.592,3.5989,3.6108,3.618,3.6205,3.6226,3.6298,3.6324,3.6005,3.6005,3.6006,0,3.5501,3.5596,3.5552,3.563,3.5657,3.5579,3.5675,3.5692,3.5729,3.575,3.5696,3.5815,3.5824,3.595,3.5999,3.602,3.6045,3.5988,3.6204,3.6225,3.6245,3.6313,3.634,3.6014,3.6013,3.6012,3.6011,0,3.5727,3.5794,3.5868,3.5904,3.5939,3.6026,3.5996,3.6037,3.6003,3.5992,3.6092,3.6101,3.6152,3.6179,3.6147,3.6301,3.6271,3.6212,3.6117,3.6283,3.6346,3.6372,3.6026,3.6023,3.602,3.6018,0,0,3.6002,3.6013,3.6041,3.6056,3.6074,3.6125,3.6209,3.6257,3.6293,3.6322,3.639,3.6473,3.6419,3.6444,3.6413,3.6477,3.6636,3.641,3.641,3.6452,3.6807,3.6851,3.6882,3.6602,3.6607,3.661,3.6805,0,3.6193,3.6335,3.6298,3.644,3.6501,3.6428,3.6501,3.652,3.6512,3.6563,3.6554,3.6613,3.6537,3.6551,3.6611,3.6604,3.6707,3.659,3.6666,3.667,3.6663,3.6915,3.6962,3.7145,3.6829,3.6833,3.6836,0,3.6436,3.6473,3.662,3.6628,3.6652,3.6718,3.6759,3.6809,3.683,3.6819,3.6848,3.6804,3.6887,3.6792,3.6905,3.6827,3.6856,3.6857,3.6863,3.6869,3.6763,3.6928,3.7203,3.7231,3.6875,3.6872,3.6869,0,3.6622,3.6708,3.6808,3.6823,3.6835,3.6883,3.689,3.6905,3.6936,3.6973,3.6993,3.7039,3.7065,3.7102,3.7073,3.7006,3.7191,3.7093,3.7185,3.7187,3.7228,3.7226,3.7512,3.7247,3.7246,3.7246,3.7245,0,3.684,3.6933,3.6891,3.6953,3.7055,3.7012,3.7115,3.7114,3.7128,3.7188,3.7128,3.7186,3.7143,3.7198,3.7175,3.7273,3.7285,3.7279,3.7272,3.7285,3.7286,3.7304,3.729,3.7253,3.7252,3.725,3.7249,0,3.7065,3.7041,3.7144,3.7146,3.7149,3.7225,3.7226,3.7283,3.727,3.7348,3.7363,3.7343,3.7404,3.7378,3.7443,3.7428,3.7554,3.753,3.7547,3.7541,3.7634,3.7626,3.7942,3.7981,3.7691,3.7694,3.7696,0,3.7206,3.7276,3.7285,3.7321,3.7332,3.739,3.7422,3.7382,3.7418,3.7446,3.7501,3.7556,3.7599,3.77,3.7692,3.7741,3.7718,3.7825,3.7725,3.7736,3.772,3.7716,3.7723,3.7845,3.7849,3.7851,3.7854,0,3.7459,3.7443,3.7491,3.7535,3.7574,3.7607,3.7635,3.7668,3.7629,3.7673,3.7734,3.7767,3.7833,3.7889,3.7932,3.794,3.7892,3.7885,3.7909,3.7923,3.793,3.7928,3.7602,3.7878,3.7876,3.7874,3.7873,3.7872,3.7647,3.7705,3.7721,3.7776,3.7793,3.782,3.7873,3.7867,3.7917,3.7967,3.7941,3.8013,3.8031,3.8084,3.8099,3.8155,3.8113,3.8147,3.8156,3.8166,3.8178,3.7921,3.8163,3.8162,3.8161,3.816,3.816,0,3.7897,3.7903,3.7954,3.7994,3.8038,3.7987,3.8015,3.8055,3.8119,3.814,3.8183,3.8253,3.8308,3.8304,3.8354,3.8399,3.8378,3.8414,3.841,3.8413,3.8213,3.8187,3.843,3.843,3.843,3.843,3.843,3.843,3.8032,3.8128,3.8115,3.8219,3.8225,3.8294,3.8315,3.834,3.8356,3.8438,3.8482,3.8479,3.849,3.854,3.8588,3.8586,3.8607,3.8651,3.8641,3.8454,3.8427,3.8401,3.8377,3.8656,3.8657,3.8836,3.8838,3.8839]},{"header":{"parameterUnit":"m.s-1","parameterCategory":1,"la1":30.2991,"la2":30.254,"lo1":-89.0895,"lo2":-89.0444,"dy":0.0017,"dx":0.0017,"nx":28,"ny":28,"refTime":"2025-07-27T03:00:00:Z","depth":0,"parameterNumber":3,"parameterNumberName":"V-component_of_WINDS"},"data":[0,0,0,0,0,0,0,0,0,0,0,0,0,0,0,0,0,0,0,0,0,0,0,0,0,0,0,0,0,0,0,0,0,0,0,0,0,0,0,0,0,0,0,0,0,0,0,0,0,0,0,0,0,0,0,0,0,0,-1.2987,-1.2987,0,-1.3028,-1.3029,-1.3029,-1.3024,-1.3023,-1.3022,-1.3022,-1.3065,-1.3067,-1.3069,0,0,0,0,0,0,0,0,0,0,0,0,0,-1.2903,-1.2905,-1.2987,-1.2987,-1.2988,-1.3028,-1.3029,-1.3029,-1.3024,-1.3023,-1.3022,-1.3021,-1.3064,-1.3067,-1.3069,0,0,0,0,0,0,0,0,0,0,0,0,0,-1.2942,-1.2905,-1.2987,-1.299,-1.299,-1.3028,-1.3029,-1.303,-1.3024,-1.3023,-1.3022,-1.3021,-1.3064,-1.3066,-1.3069,-1.3106,0,0,-1.3077,-1.3078,0,0,0,0,0,0,0,0,-1.2939,-1.2945,-1.2989,-1.299,-1.299,-1.302,-1.3015,-1.3055,-1.3024,-1.3011,-1.3022,-1.302,-1.3051,-1.3055,-1.3065,-1.3109,-1.311,-1.3078,-1.3079,-1.308,-1.3081,0,0,0,0,0,0,0,-1.2937,-1.2943,-1.3003,-1.2989,-1.299,-1.2989,-1.2994,-1.3023,-1.3036,-1.3012,-1.3012,-1.3017,-1.3051,-1.3062,-1.3066,-1.3111,-1.3077,-1.308,-1.3082,-1.3083,-1.3188,-1.3189,0,0,0,0,0,0,-1.2933,-1.2941,-1.3002,-1.3004,-1.2962,-1.2992,-1.2997,-1.3011,-1.3036,-1.3039,-1.3018,-1.3017,-1.3058,-1.3063,-1.3067,-1.3113,-1.308,-1.3083,-1.3084,-1.3187,-1.3189,-1.319,0,0,0,0,0,0,-1.2931,-1.2939,-1.3,-1.2973,-1.298,-1.2994,-1.3011,-1.3013,-1.3024,-1.304,-1.3043,-1.3026,-1.3057,-1.3063,-1.3097,-1.3114,-1.3084,-1.3087,-1.3186,-1.3188,-1.3189,-1.3204,0,0,0,0,0,0,-1.2929,-1.2938,-1.2952,-1.2973,-1.2982,-1.3029,-1.3012,-1.3014,-1.3028,-1.3027,-1.3049,-1.3052,-1.3057,-1.3093,-1.31,-1.3117,-1.3089,-1.3184,-1.3187,-1.3189,-1.3202,-1.3206,-1.321,0,0,0,0,0,-1.2926,-1.2955,-1.2953,-1.296,-1.3,-1.303,-1.3035,-1.304,-1.303,-1.3044,-1.3055,-1.3051,-1.3111,-1.3096,-1.3104,-1.3123,-1.3183,-1.3186,-1.3188,-1.3201,-1.3206,-1.321,0,0,0,0,0,0,-1.2936,-1.2958,-1.2956,-1.2992,-1.3009,-1.3029,-1.3047,-1.3045,-1.3066,-1.3064,-1.307,-1.3075,-1.3109,-1.3119,-1.3102,-1.3161,-1.3146,-1.315,-1.3153,-1.3157,-1.3161,-1.3158,-1.3091,0,0,0,0,0,-1.2942,-1.2965,-1.2983,-1.3013,-1.3022,-1.3033,-1.3046,-1.3049,-1.3067,-1.3074,-1.3087,-1.3105,-1.3129,-1.3144,-1.3166,-1.3204,-1.3209,-1.3221,-1.3225,-1.3228,-1.3231,-1.3253,-1.3258,-1.3199,-1.3199,-1.3199,0,0,-1.2956,-1.297,-1.2984,-1.3015,-1.3029,-1.3052,-1.3039,-1.3064,-1.3082,-1.3078,-1.3111,-1.3121,-1.3142,-1.3178,-1.3194,-1.3187,-1.3249,-1.3231,-1.3233,-1.3235,-1.3256,-1.3262,-1.3267,-1.32,-1.32,-1.32,0,0,-1.2992,-1.3005,-1.3032,-1.3046,-1.3067,-1.3074,-1.3081,-1.3101,-1.3108,-1.314,-1.3138,-1.3159,-1.3199,-1.3214,-1.3226,-1.3269,-1.3266,-1.3276,-1.3296,-1.3317,-1.3321,-1.3325,-1.3341,-1.3346,-1.328,-1.328,-1.328,0,-1.3006,-1.3041,-1.3046,-1.3072,-1.3086,-1.3083,-1.3111,-1.3124,-1.3151,-1.3161,-1.3153,-1.3203,-1.3217,-1.3256,-1.3267,-1.3277,-1.3285,-1.3273,-1.332,-1.3324,-1.3328,-1.3343,-1.3349,-1.3281,-1.3281,-1.3281,-1.328,0,-1.3057,-1.3082,-1.3101,-1.3127,-1.3143,-1.3169,-1.3179,-1.3195,-1.3196,-1.3205,-1.3238,-1.3255,-1.328,-1.329,-1.3292,-1.333,-1.3325,-1.3319,-1.3304,-1.3335,-1.3349,-1.3355,-1.3282,-1.3282,-1.3282,-1.3281,0,0,-1.3101,-1.3129,-1.3136,-1.3148,-1.3171,-1.319,-1.3217,-1.3242,-1.3255,-1.3274,-1.3297,-1.3331,-1.3325,-1.3339,-1.3343,-1.3361,-1.3394,-1.3352,-1.3353,-1.336,-1.3438,-1.3443,-1.3449,-1.3393,-1.3394,-1.3395,-1.3437,0,-1.3139,-1.3186,-1.3191,-1.3233,-1.3256,-1.3254,-1.3277,-1.3294,-1.3303,-1.3324,-1.3334,-1.3358,-1.3348,-1.3357,-1.3375,-1.3386,-1.341,-1.3384,-1.3414,-1.3415,-1.3409,-1.3457,-1.3462,-1.35,-1.3442,-1.3443,-1.3444,0,-1.319,-1.321,-1.3254,-1.3274,-1.3284,-1.3305,-1.3328,-1.3348,-1.3368,-1.3373,-1.3389,-1.3391,-1.3419,-1.3403,-1.3442,-1.3424,-1.3437,-1.3445,-1.3446,-1.3449,-1.3431,-1.3461,-1.3513,-1.3519,-1.3452,-1.3452,-1.3451,0,-1.3217,-1.3256,-1.3287,-1.3297,-1.3321,-1.3336,-1.3347,-1.3365,-1.338,-1.3401,-1.3411,-1.3434,-1.3448,-1.3466,-1.3474,-1.3462,-1.3513,-1.3498,-1.3518,-1.3518,-1.3529,-1.3528,-1.3584,-1.3538,-1.3537,-1.3537,-1.3537,0,-1.326,-1.3287,-1.3299,-1.3319,-1.3349,-1.3355,-1.3385,-1.3396,-1.3412,-1.3434,-1.3434,-1.3455,-1.3464,-1.3486,-1.3493,-1.3524,-1.353,-1.3535,-1.3537,-1.3535,-1.3535,-1.3544,-1.3541,-1.3539,-1.3539,-1.3538,-1.3538,0,-1.3295,-1.3305,-1.3339,-1.3359,-1.3365,-1.3386,-1.3404,-1.3423,-1.3432,-1.3459,-1.3466,-1.348,-1.3506,-1.3516,-1.3547,-1.3552,-1.3588,-1.3588,-1.3582,-1.3582,-1.3602,-1.36,-1.3665,-1.3674,-1.3622,-1.3623,-1.3623,0,-1.3322,-1.3342,-1.3365,-1.3379,-1.3391,-1.3414,-1.3429,-1.3436,-1.3452,-1.3476,-1.3492,-1.3518,-1.3539,-1.3581,-1.3594,-1.3618,-1.3618,-1.3639,-1.3622,-1.362,-1.3619,-1.3618,-1.362,-1.3643,-1.3643,-1.3644,-1.3644,0,-1.3368,-1.3371,-1.3393,-1.3416,-1.3434,-1.3453,-1.3471,-1.3483,-1.3493,-1.3511,-1.3538,-1.3554,-1.3586,-1.3612,-1.3638,-1.3649,-1.3649,-1.3649,-1.3655,-1.3654,-1.365,-1.3653,-1.3591,-1.3648,-1.3647,-1.3647,-1.3647,-1.3647,-1.3399,-1.3418,-1.3437,-1.3461,-1.3475,-1.3492,-1.3511,-1.3522,-1.3544,-1.3571,-1.3574,-1.3603,-1.3623,-1.3656,-1.3669,-1.3692,-1.3687,-1.3695,-1.3698,-1.37,-1.3701,-1.3646,-1.3697,-1.3697,-1.3697,-1.3697,-1.3697,0,-1.3446,-1.3458,-1.348,-1.3505,-1.3524,-1.3522,-1.3542,-1.3558,-1.3583,-1.3601,-1.3622,-1.3653,-1.3678,-1.3693,-1.3719,-1.3734,-1.3735,-1.3741,-1.374,-1.3743,-1.3705,-1.3697,-1.374,-1.374,-1.374,-1.374,-1.374,-1.374,-1.3472,-1.3503,-1.3509,-1.3547,-1.3559,-1.3587,-1.3599,-1.3615,-1.363,-1.3664,-1.3685,-1.3694,-1.3712,-1.3739,-1.3762,-1.3766,-1.3775,-1.3782,-1.3786,-1.375,-1.3745,-1.3741,-1.3734,-1.3784,-1.3784,-1.3822,-1.3822,-1.3822]}]]